BCS13G EDDF-EGGW

Flight info

Callsign BCS13G
Flight time 1h 23m
Altitude 34000
Route OBOKA3D OBOKA Z29 TORNU DCT BATAK DCT NOGRO M40 RINIS
Aircraft A306/H-SDE1FGHIRWXYZ/HB1

Departure

Time 2026-04-15 05:49
Airport Frankfurt Main Airport (EDDF)

Arrival

Time 2026-04-15 07:12
Airport London Luton Airport (EGGW)
Time Latitude Longitude Altitude Speed Heading
2026-04-15 05:21 50.03783 8.53364 359 ft 0 kts 339°
2026-04-15 05:41 50.03781 8.53365 349 ft 3 kts 339°
2026-04-15 05:41 50.03756 8.53380 359 ft 4 kts 340°
2026-04-15 05:41 50.03732 8.53394 359 ft 4 kts 341°
2026-04-15 05:41 50.03707 8.53402 358 ft 4 kts 11°
2026-04-15 05:42 50.03685 8.53384 358 ft 4 kts 56°
2026-04-15 05:42 50.03674 8.53347 358 ft 5 kts 72°
2026-04-15 05:42 50.03671 8.53332 358 ft 2 kts 69°
2026-04-15 05:44 50.03672 8.53338 358 ft 4 kts 69°
2026-04-15 05:44 50.03694 8.53431 357 ft 12 kts 69°
2026-04-15 05:45 50.03707 8.53534 355 ft 8 kts 106°
2026-04-15 05:45 50.03642 8.53571 352 ft 14 kts 201°
2026-04-15 05:45 50.03543 8.53504 354 ft 16 kts 204°
2026-04-15 05:45 50.03471 8.53453 354 ft 9 kts 205°
2026-04-15 05:46 50.03411 8.53436 346 ft 9 kts 166°
2026-04-15 05:46 50.03374 8.53487 350 ft 0 kts 125°
2026-04-15 05:47 50.03374 8.53488 350 ft 0 kts 125°
2026-04-15 05:48 50.03353 8.53532 353 ft 10 kts 125°
2026-04-15 05:48 50.03314 8.53620 351 ft 10 kts 120°
2026-04-15 05:48 50.03328 8.53742 353 ft 16 kts 68°
2026-04-15 05:48 50.03408 8.54073 355 ft 65 kts 69°
2026-04-15 05:49 50.03661 8.55133 351 ft 140 kts 70°
2026-04-15 05:49 50.04083 8.56838 600 ft 184 kts 67°
2026-04-15 05:49 50.04536 8.58674 1750 ft 181 kts 71°
2026-04-15 05:49 50.04989 8.60683 2404 ft 213 kts 72°
2026-04-15 05:50 50.05477 8.62923 3474 ft 221 kts 72°
2026-04-15 05:50 50.05976 8.65181 4825 ft 220 kts 71°
2026-04-15 05:50 50.07081 8.69759 7244 ft 236 kts 60°
2026-04-15 05:51 50.08210 8.71662 8314 ft 250 kts 34°
2026-04-15 05:51 50.09816 8.72966 9137 ft 269 kts 23°
2026-04-15 05:51 50.11577 8.74110 10147 ft 279 kts 22°
2026-04-15 05:51 50.13416 8.75294 10892 ft 296 kts 22°
2026-04-15 05:52 50.15398 8.76595 11303 ft 321 kts 22°
2026-04-15 05:52 50.17525 8.78014 11665 ft 344 kts 22°
2026-04-15 05:52 50.19788 8.79527 12096 ft 361 kts 22°
2026-04-15 05:52 50.22223 8.80627 12751 ft 369 kts
2026-04-15 05:53 50.24793 8.80501 13521 ft 373 kts 348°
2026-04-15 05:53 50.27203 8.78983 14291 ft 376 kts 327°
2026-04-15 05:53 50.29131 8.76237 15019 ft 378 kts 308°
2026-04-15 05:53 50.30377 8.72617 15784 ft 381 kts 292°
2026-04-15 05:54 50.31267 8.68693 16510 ft 385 kts 289°
2026-04-15 05:54 50.32114 8.64698 17212 ft 389 kts 289°
2026-04-15 05:54 50.32975 8.60657 17935 ft 393 kts 290°
2026-04-15 05:54 50.33849 8.56592 18686 ft 395 kts 290°
2026-04-15 05:55 50.34733 8.52493 19283 ft 400 kts 290°
2026-04-15 05:55 50.35628 8.48351 19856 ft 404 kts 290°
2026-04-15 05:55 50.36531 8.44164 20414 ft 408 kts 290°
2026-04-15 05:55 50.37267 8.39858 20971 ft 413 kts 282°
2026-04-15 05:56 50.37468 8.35341 21527 ft 420 kts 270°
2026-04-15 05:56 50.37016 8.30796 22080 ft 426 kts 258°
2026-04-15 05:56 50.36178 8.26329 22624 ft 430 kts 255°
2026-04-15 05:56 50.35267 8.21848 23092 ft 434 kts 254°
2026-04-15 05:57 50.34344 8.17330 23568 ft 438 kts 254°
2026-04-15 05:57 50.33417 8.12768 24021 ft 441 kts 255°
2026-04-15 05:57 50.32498 8.08235 24422 ft 444 kts 255°
2026-04-15 05:57 50.31565 8.03621 24840 ft 446 kts 255°
2026-04-15 05:58 50.30698 7.98887 25233 ft 447 kts 260°
2026-04-15 05:58 50.30264 7.94086 25628 ft 445 kts 270°
2026-04-15 05:58 50.30378 7.89332 26025 ft 443 kts 280°
2026-04-15 05:58 50.30767 7.86148 26293 ft 441 kts 287°
2026-04-15 05:59 50.31770 7.81642 26716 ft 438 kts 295°
2026-04-15 05:59 50.33009 7.77288 27112 ft 438 kts 297°
2026-04-15 05:59 50.34443 7.73094 27468 ft 437 kts 304°
2026-04-15 05:59 50.36258 7.69288 27834 ft 436 kts 313°
2026-04-15 06:00 50.38444 7.66022 28200 ft 434 kts 322°
2026-04-15 06:00 50.40949 7.63377 28568 ft 434 kts 331°
2026-04-15 06:00 50.43649 7.61329 29128 ft 430 kts 336°
2026-04-15 06:00 50.46372 7.59447 29712 ft 425 kts 336°
2026-04-15 06:01 50.49075 7.57597 30270 ft 422 kts 336°
2026-04-15 06:01 50.51758 7.55756 30711 ft 420 kts 336°
2026-04-15 06:01 50.54417 7.53902 31150 ft 417 kts 335°
2026-04-15 06:01 50.56966 7.51731 31580 ft 415 kts 329°
2026-04-15 06:02 50.59401 7.49311 32029 ft 413 kts 328°
2026-04-15 06:02 50.61804 7.46857 32494 ft 410 kts 328°
2026-04-15 06:02 50.64194 7.44403 32808 ft 411 kts 327°
2026-04-15 06:02 50.66589 7.41945 33232 ft 409 kts 327°
2026-04-15 06:03 50.68966 7.39502 33726 ft 406 kts 327°
2026-04-15 06:03 50.71315 7.37053 34143 ft 405 kts 325°
2026-04-15 06:03 50.73490 7.34234 34260 ft 402 kts 317°
2026-04-15 06:03 50.75241 7.30983 34257 ft 388 kts 308°
2026-04-15 06:04 50.76622 7.27388 34254 ft 379 kts 303°
2026-04-15 06:04 50.79076 7.20040 34266 ft 378 kts 301°
2026-04-15 06:05 50.81438 7.12622 34268 ft 378 kts 300°
2026-04-15 06:05 50.83809 7.05201 34245 ft 378 kts 301°
2026-04-15 06:06 50.86202 6.97772 34265 ft 380 kts 300°
2026-04-15 06:06 50.88604 6.90319 34261 ft 380 kts 300°
2026-04-15 06:07 50.91003 6.82854 34238 ft 380 kts 300°
2026-04-15 06:07 50.93398 6.75378 34238 ft 380 kts 300°
2026-04-15 06:08 50.95790 6.67889 34235 ft 381 kts 300°
2026-04-15 06:08 50.98176 6.60393 34220 ft 381 kts 300°
2026-04-15 06:09 51.00562 6.52875 34233 ft 382 kts 299°
2026-04-15 06:09 51.02952 6.45321 34231 ft 383 kts 299°
2026-04-15 06:10 51.05336 6.37763 34230 ft 383 kts 299°
2026-04-15 06:10 51.07715 6.30197 34232 ft 383 kts 299°
2026-04-15 06:11 51.10089 6.22621 34227 ft 383 kts 299°
2026-04-15 06:11 51.12445 6.15083 34219 ft 383 kts 298°
2026-04-15 06:12 51.14426 6.07185 34227 ft 387 kts 289°
2026-04-15 06:12 51.15865 5.98914 34223 ft 388 kts 288°
2026-04-15 06:13 51.17202 5.90590 34227 ft 388 kts 287°
2026-04-15 06:13 51.18869 5.82455 34220 ft 384 kts 298°
2026-04-15 06:14 51.21446 5.75015 34204 ft 383 kts 302°
2026-04-15 06:14 51.24185 5.67743 34201 ft 383 kts 302°
2026-04-15 06:15 51.26955 5.60469 34199 ft 384 kts 302°
2026-04-15 06:15 51.29710 5.53168 34207 ft 384 kts 302°
2026-04-15 06:16 51.32450 5.45850 34208 ft 384 kts 302°
2026-04-15 06:16 51.35184 5.38512 34216 ft 384 kts 302°
2026-04-15 06:17 51.37913 5.31169 34206 ft 384 kts 301°
2026-04-15 06:17 51.40639 5.23815 34210 ft 384 kts 301°
2026-04-15 06:18 51.43365 5.16442 34210 ft 385 kts 301°
2026-04-15 06:18 51.46089 5.09050 34211 ft 385 kts 301°
2026-04-15 06:19 51.48806 5.01658 34211 ft 384 kts 301°
2026-04-15 06:19 51.51517 4.94260 34213 ft 384 kts 301°
2026-04-15 06:20 51.54219 4.86866 34213 ft 384 kts 301°
2026-04-15 06:20 51.56866 4.79408 34203 ft 384 kts 296°
2026-04-15 06:21 51.59000 4.71518 34208 ft 386 kts 293°
2026-04-15 06:21 51.61022 4.63528 34191 ft 386 kts 292°
2026-04-15 06:22 51.63015 4.55517 34190 ft 386 kts 292°
2026-04-15 06:22 51.65010 4.47499 34187 ft 386 kts 292°
2026-04-15 06:23 51.67005 4.39477 34181 ft 386 kts 292°
2026-04-15 06:23 51.68996 4.31456 34183 ft 386 kts 292°
2026-04-15 06:24 51.70968 4.23477 34186 ft 386 kts 292°
2026-04-15 06:24 51.72949 4.15439 34191 ft 386 kts 292°
2026-04-15 06:25 51.74924 4.07390 34186 ft 385 kts 292°
2026-04-15 06:25 51.76890 3.99348 34184 ft 385 kts 292°
2026-04-15 06:26 51.78851 3.91297 34182 ft 385 kts 292°
2026-04-15 06:26 51.80809 3.83231 34174 ft 386 kts 291°
2026-04-15 06:27 51.82763 3.75151 34177 ft 386 kts 291°
2026-04-15 06:27 51.84714 3.67053 34172 ft 386 kts 291°
2026-04-15 06:28 51.86658 3.58955 34172 ft 386 kts 291°
2026-04-15 06:28 51.88615 3.50773 34175 ft 397 kts 291°
2026-04-15 06:29 51.90643 3.42258 34169 ft 413 kts 291°
2026-04-15 06:29 51.92729 3.33470 34167 ft 421 kts 290°
2026-04-15 06:30 51.94824 3.24605 34152 ft 421 kts 290°
2026-04-15 06:30 51.95730 3.20154 33681 ft 412 kts 283°
2026-04-15 06:30 51.96169 3.15683 33146 ft 404 kts 274°
2026-04-15 06:30 51.96149 3.11170 32573 ft 398 kts 268°
2026-04-15 06:31 51.95955 3.06719 32002 ft 393 kts 266°
2026-04-15 06:31 51.95688 3.02334 31452 ft 389 kts 265°
2026-04-15 06:31 51.95390 2.98001 30905 ft 384 kts 264°
2026-04-15 06:31 51.95085 2.93723 30363 ft 381 kts 264°
2026-04-15 06:32 51.94783 2.89473 29758 ft 378 kts 264°
2026-04-15 06:32 51.94490 2.85274 29242 ft 373 kts 264°
2026-04-15 06:32 51.94205 2.81122 28708 ft 369 kts 264°
2026-04-15 06:32 51.93925 2.77013 28207 ft 365 kts 264°
2026-04-15 06:33 51.93649 2.72936 27677 ft 363 kts 264°
2026-04-15 06:33 51.93374 2.68874 27147 ft 362 kts 264°
2026-04-15 06:33 51.93099 2.64834 26639 ft 360 kts 264°
2026-04-15 06:33 51.92823 2.60816 26141 ft 358 kts 264°
2026-04-15 06:34 51.92548 2.56814 25599 ft 357 kts 264°
2026-04-15 06:34 51.92271 2.52815 25041 ft 357 kts 264°
2026-04-15 06:34 51.91994 2.48825 24497 ft 357 kts 264°
2026-04-15 06:34 51.91715 2.44835 23976 ft 356 kts 263°
2026-04-15 06:35 51.91436 2.40854 23372 ft 356 kts 263°
2026-04-15 06:35 51.91156 2.36886 22797 ft 353 kts 263°
2026-04-15 06:35 51.90889 2.32958 22312 ft 349 kts 264°
2026-04-15 06:35 51.90749 2.29062 21905 ft 345 kts 267°
2026-04-15 06:36 51.90657 2.25186 21479 ft 344 kts 267°
2026-04-15 06:36 51.90572 2.21326 21096 ft 342 kts 267°
2026-04-15 06:36 51.90486 2.17491 20724 ft 340 kts 267°
2026-04-15 06:36 51.90397 2.13675 20325 ft 338 kts 267°
2026-04-15 06:37 51.90307 2.09889 19947 ft 336 kts 267°
2026-04-15 06:37 51.90216 2.06120 19568 ft 334 kts 267°
2026-04-15 06:37 51.90124 2.02365 19192 ft 332 kts 267°
2026-04-15 06:37 51.90031 1.98640 18820 ft 330 kts 267°
2026-04-15 06:38 51.89938 1.94937 18451 ft 328 kts 266°
2026-04-15 06:38 51.89940 1.91260 18133 ft 327 kts 274°
2026-04-15 06:38 51.90528 1.87705 18046 ft 330 kts 292°
2026-04-15 06:38 51.91788 1.84574 17961 ft 334 kts 305°
2026-04-15 06:39 51.93251 1.81716 17838 ft 334 kts 307°
2026-04-15 06:39 51.94758 1.78856 17744 ft 334 kts 307°
2026-04-15 06:39 51.96263 1.75987 17639 ft 333 kts 307°
2026-04-15 06:39 51.97757 1.73119 17523 ft 333 kts 307°
2026-04-15 06:40 51.99245 1.70248 17418 ft 332 kts 307°
2026-04-15 06:40 52.00729 1.67377 17320 ft 332 kts 307°
2026-04-15 06:40 52.02208 1.64508 17204 ft 331 kts 307°
2026-04-15 06:40 52.03684 1.61637 17107 ft 331 kts 307°
2026-04-15 06:41 52.05161 1.58762 16999 ft 331 kts 307°
2026-04-15 06:41 52.06634 1.55891 16889 ft 331 kts 307°
2026-04-15 06:41 52.08105 1.53021 16776 ft 330 kts 307°
2026-04-15 06:41 52.09575 1.50148 16672 ft 330 kts 307°
2026-04-15 06:42 52.11041 1.47280 16570 ft 330 kts 307°
2026-04-15 06:42 52.12507 1.44408 16455 ft 330 kts 306°
2026-04-15 06:42 52.13971 1.41538 16351 ft 330 kts 306°
2026-04-15 06:42 52.15386 1.38610 16252 ft 327 kts 300°
2026-04-15 06:43 52.16313 1.35285 16135 ft 321 kts 282°
2026-04-15 06:43 52.16708 1.31733 16026 ft 318 kts 275°
2026-04-15 06:43 52.16987 1.28158 15933 ft 318 kts 274°
2026-04-15 06:43 52.17255 1.24589 15832 ft 317 kts 274°
2026-04-15 06:44 52.17525 1.21025 15724 ft 317 kts 274°
2026-04-15 06:44 52.17799 1.17469 15627 ft 316 kts 274°
2026-04-15 06:44 52.18074 1.13912 15521 ft 316 kts 274°
2026-04-15 06:44 52.18349 1.10362 15422 ft 316 kts 274°
2026-04-15 06:45 52.18623 1.06821 15315 ft 315 kts 274°
2026-04-15 06:45 52.18896 1.03285 15222 ft 314 kts 274°
2026-04-15 06:45 52.19168 0.99751 15127 ft 314 kts 274°
2026-04-15 06:45 52.19439 0.96222 15010 ft 313 kts 274°
2026-04-15 06:46 52.19709 0.92706 14918 ft 312 kts 274°
2026-04-15 06:46 52.19972 0.89245 14822 ft 312 kts 274°
2026-04-15 06:46 52.20239 0.85740 14720 ft 311 kts 274°
2026-04-15 06:46 52.20503 0.82241 14613 ft 311 kts 273°
2026-04-15 06:47 52.20681 0.79880 14543 ft 311 kts 274°
2026-04-15 06:47 52.20943 0.76386 14447 ft 310 kts 273°
2026-04-15 06:47 52.21287 0.71769 14304 ft 309 kts 273°
2026-04-15 06:47 52.21546 0.68294 14198 ft 307 kts 273°
2026-04-15 06:48 52.21799 0.64904 14076 ft 295 kts 273°
2026-04-15 06:48 52.21964 0.62673 13996 ft 293 kts 273°
2026-04-15 06:48 52.22206 0.59371 13866 ft 293 kts 273°
2026-04-15 06:48 52.22446 0.56074 13720 ft 293 kts 273°
2026-04-15 06:49 52.22686 0.52780 13574 ft 292 kts 273°
2026-04-15 06:49 52.22925 0.49497 13429 ft 292 kts 273°
2026-04-15 06:49 52.23163 0.46208 13307 ft 292 kts 272°
2026-04-15 06:50 52.23636 0.39645 13041 ft 291 kts 272°
2026-04-15 06:50 52.23870 0.36365 12898 ft 291 kts 272°
2026-04-15 06:50 52.24104 0.33095 12767 ft 290 kts 272°
2026-04-15 06:50 52.24336 0.29831 12628 ft 289 kts 272°
2026-04-15 06:51 52.24563 0.26618 12495 ft 289 kts 272°
2026-04-15 06:51 52.24792 0.23367 12357 ft 288 kts 272°
2026-04-15 06:51 52.25019 0.20123 12232 ft 288 kts 272°
2026-04-15 06:51 52.25246 0.16879 12091 ft 287 kts 272°
2026-04-15 06:52 52.25471 0.13644 11978 ft 287 kts 271°
2026-04-15 06:52 52.25695 0.10415 11839 ft 286 kts 271°
2026-04-15 06:52 52.25918 0.07188 11709 ft 286 kts 271°
2026-04-15 06:52 52.26139 0.03985 11570 ft 279 kts 271°
2026-04-15 06:53 52.26354 0.00907 11436 ft 267 kts 271°
2026-04-15 06:53 52.26558 -0.02043 11323 ft 256 kts 271°
2026-04-15 06:53 52.26766 -0.04874 11190 ft 249 kts 273°
2026-04-15 06:53 52.27147 -0.07638 11086 ft 250 kts 278°
2026-04-15 06:54 52.27613 -0.10380 10985 ft 251 kts 279°
2026-04-15 06:54 52.28092 -0.13117 10861 ft 251 kts 279°
2026-04-15 06:54 52.28570 -0.15850 10753 ft 250 kts 279°
2026-04-15 06:54 52.29047 -0.18582 10623 ft 250 kts 279°
2026-04-15 06:55 52.29520 -0.21309 10502 ft 250 kts 279°
2026-04-15 06:55 52.29993 -0.24041 10389 ft 249 kts 279°
2026-04-15 06:55 52.30464 -0.26765 10271 ft 249 kts 278°
2026-04-15 06:55 52.30933 -0.29487 10151 ft 249 kts 278°
2026-04-15 06:56 52.31402 -0.32206 10038 ft 248 kts 278°
2026-04-15 06:56 52.31891 -0.34911 9923 ft 250 kts 283°
2026-04-15 06:56 52.32801 -0.37381 9764 ft 263 kts 308°
2026-04-15 06:56 52.34418 -0.38875 9655 ft 277 kts 343°
2026-04-15 06:57 52.36345 -0.38707 9525 ft 283 kts 19°
2026-04-15 06:57 52.37922 -0.36874 9373 ft 278 kts 56°
2026-04-15 06:57 52.38614 -0.34037 9265 ft 264 kts 92°
2026-04-15 06:57 52.38319 -0.31187 9160 ft 249 kts 122°
2026-04-15 06:58 52.37294 -0.29038 9093 ft 236 kts 148°
2026-04-15 06:58 52.35856 -0.27934 9034 ft 226 kts 173°
2026-04-15 06:58 52.34307 -0.27836 8890 ft 222 kts 184°
2026-04-15 06:58 52.32776 -0.27616 8733 ft 228 kts 169°
2026-04-15 06:59 52.31371 -0.26351 8635 ft 239 kts 142°
2026-04-15 06:59 52.30452 -0.24035 8529 ft 249 kts 120°
2026-04-15 06:59 52.29628 -0.21586 8400 ft 242 kts 135°
2026-04-15 06:59 52.28349 -0.19957 8275 ft 230 kts 162°
2026-04-15 07:00 52.26819 -0.19532 8184 ft 222 kts 187°
2026-04-15 07:00 52.25329 -0.20105 8111 ft 220 kts 199°
2026-04-15 07:00 52.23857 -0.20797 8104 ft 221 kts 191°
2026-04-15 07:00 52.22314 -0.20798 8106 ft 224 kts 176°
2026-04-15 07:01 52.20773 -0.20414 8107 ft 225 kts 174°
2026-04-15 07:01 52.19227 -0.20074 8037 ft 224 kts 179°
2026-04-15 07:01 52.17672 -0.19980 8040 ft 224 kts 182°
2026-04-15 07:01 52.16119 -0.19944 8041 ft 223 kts 182°
2026-04-15 07:02 52.14571 -0.19916 8032 ft 223 kts 182°
2026-04-15 07:02 52.13028 -0.19888 7869 ft 220 kts 182°
2026-04-15 07:02 52.11499 -0.19931 7297 ft 220 kts 188°
2026-04-15 07:02 52.10046 -0.20692 6673 ft 222 kts 211°
2026-04-15 07:03 52.08914 -0.22389 6140 ft 222 kts 228°
2026-04-15 07:03 52.07955 -0.24356 5572 ft 222 kts 231°
2026-04-15 07:03 52.07033 -0.26324 5193 ft 216 kts 231°
2026-04-15 07:03 52.06046 -0.28155 5013 ft 216 kts 220°
2026-04-15 07:04 52.04739 -0.29292 5005 ft 214 kts 197°
2026-04-15 07:04 52.03249 -0.29352 4980 ft 219 kts 174°
2026-04-15 07:04 52.01775 -0.28660 4991 ft 224 kts 160°
2026-04-15 07:04 52.00522 -0.27096 4989 ft 234 kts 134°
2026-04-15 07:05 51.99863 -0.24637 4996 ft 246 kts 103°
2026-04-15 07:05 51.99857 -0.21837 4997 ft 250 kts 90°
2026-04-15 07:05 52.00015 -0.19085 4984 ft 235 kts 88°
2026-04-15 07:05 52.00174 -0.16563 4975 ft 218 kts 89°
2026-04-15 07:06 52.00282 -0.14143 4967 ft 212 kts 96°
2026-04-15 07:06 51.99919 -0.11902 4544 ft 204 kts 131°
2026-04-15 07:06 51.98882 -0.10586 4223 ft 187 kts 163°
2026-04-15 07:06 51.97650 -0.09928 3876 ft 183 kts 170°
2026-04-15 07:07 51.96420 -0.09402 3547 ft 181 kts 171°
2026-04-15 07:07 51.95241 -0.08896 3430 ft 169 kts 171°
2026-04-15 07:07 51.94162 -0.08431 3291 ft 157 kts 173°
2026-04-15 07:07 51.93133 -0.08346 3118 ft 143 kts 197°
2026-04-15 07:08 51.92352 -0.09193 2982 ft 139 kts 236°
2026-04-15 07:08 51.91989 -0.10657 3008 ft 141 kts 248°
2026-04-15 07:08 51.91716 -0.12186 3002 ft 142 kts 249°
2026-04-15 07:08 51.91450 -0.13736 2990 ft 144 kts 249°
2026-04-15 07:09 51.91182 -0.15298 2987 ft 144 kts 249°
2026-04-15 07:09 51.90911 -0.16866 2925 ft 144 kts 249°
2026-04-15 07:09 51.90641 -0.18421 2741 ft 144 kts 249°
2026-04-15 07:09 51.90371 -0.19985 2537 ft 144 kts 248°
2026-04-15 07:10 51.90102 -0.21552 2331 ft 145 kts 249°
2026-04-15 07:10 51.89829 -0.23135 2136 ft 145 kts 249°
2026-04-15 07:10 51.89558 -0.24703 1929 ft 144 kts 249°
2026-04-15 07:10 51.89300 -0.26209 1755 ft 134 kts 248°
2026-04-15 07:11 51.89052 -0.27651 1561 ft 132 kts 248°
2026-04-15 07:11 51.88801 -0.29094 1373 ft 135 kts 248°
2026-04-15 07:11 51.88544 -0.30574 1174 ft 138 kts 250°
2026-04-15 07:11 51.88285 -0.32097 1001 ft 141 kts 249°
2026-04-15 07:12 51.88013 -0.33588 793 ft 138 kts 250°
2026-04-15 07:12 51.87757 -0.35123 584 ft 141 kts 251°
2026-04-15 07:12 51.87505 -0.36595 548 ft 116 kts 254°
2026-04-15 07:12 51.87358 -0.37447 544 ft 37 kts 254°
2026-04-15 07:13 51.87340 -0.37548 543 ft 3 kts 254°
2026-04-15 07:13 51.87331 -0.37606 545 ft 7 kts 257°
2026-04-15 07:13 51.87339 -0.37679 542 ft 8 kts 309°
2026-04-15 07:13 51.87388 -0.37696 542 ft 7 kts 18°
2026-04-15 07:14 51.87425 -0.37641 542 ft 8 kts 47°
2026-04-15 07:14 51.87468 -0.37567 542 ft 10 kts 46°
2026-04-15 07:14 51.87525 -0.37480 542 ft 8 kts 34°
2026-04-15 07:14 51.87571 -0.37456 542 ft 7 kts 14°
2026-04-15 07:15 51.87590 -0.37402 542 ft 6 kts 90°
2026-04-15 07:15 51.87577 -0.37317 540 ft 9 kts 99°
2026-04-15 07:15 51.87588 -0.37220 540 ft 9 kts 73°
2026-04-15 07:15 51.87606 -0.37119 540 ft 9 kts 74°
2026-04-15 07:16 51.87620 -0.37036 540 ft 6 kts 74°
2026-04-15 07:16 51.87635 -0.36960 540 ft 7 kts 60°
2026-04-15 07:16 51.87682 -0.36949 540 ft 9 kts 347°
2026-04-15 07:16 51.87764 -0.36991 540 ft 17 kts 341°
2026-04-15 07:17 51.87879 -0.37052 540 ft 18 kts 342°
2026-04-15 07:17 51.87995 -0.37115 540 ft 18 kts 341°
2026-04-15 07:17 51.88113 -0.37177 540 ft 18 kts 342°
2026-04-15 07:17 51.88231 -0.37240 540 ft 16 kts 341°
2026-04-15 07:18 51.88321 -0.37284 540 ft 12 kts 348°
2026-04-15 07:18 51.88370 -0.37296 540 ft 3 kts 352°
2026-04-15 07:18 51.88392 -0.37291 545 ft 3 kts 20°
2026-04-15 07:18 51.88410 -0.37279 540 ft 2 kts 16°
2026-04-15 07:19 51.88423 -0.37272 540 ft 2 kts 17°
2026-04-15 07:19 51.88428 -0.37270 540 ft 1 kts 17°
2026-04-15 07:19 51.88429 -0.37269 540 ft 0 kts 17°